[[{"header":{"parameterUnit":"m.s-1","parameterCategory":1,"la1":30.2991,"la2":30.254,"lo1":-89.0895,"lo2":-89.0444,"dy":0.0017,"dx":0.0017,"nx":28,"ny":28,"refTime":"2024-08-15T21:00:00:Z","depth":0,"parameterNumber":2,"parameterNumberName":"U-component_of_WINDS"},"data":[0,0,0,0,0,0,0,0,0,0,0,0,0,0,0,0,0,0,0,0,0,0,0,0,0,0,0,0,0,0,0,0,0,0,0,0,0,0,0,0,0,0,0,0,0,0,0,0,0,0,0,0,0,0,0,0,0,0,-2.645,-2.6451,0,-2.6476,-2.6476,-2.6477,-2.6439,-2.6438,-2.6437,-2.6435,-2.6462,-2.6464,-2.6466,0,0,0,0,0,0,0,0,0,0,0,0,0,-2.6371,-2.6372,-2.645,-2.6451,-2.6451,-2.6476,-2.6476,-2.6477,-2.644,-2.6438,-2.6436,-2.6435,-2.6461,-2.6464,-2.6466,0,0,0,0,0,0,0,0,0,0,0,0,0,-2.6402,-2.6373,-2.645,-2.6435,-2.6434,-2.6476,-2.6476,-2.6477,-2.644,-2.6438,-2.6436,-2.6434,-2.6461,-2.6464,-2.6466,-2.6524,0,0,-2.6475,-2.6477,0,0,0,0,0,0,0,0,-2.64,-2.6405,-2.6437,-2.6437,-2.6435,-2.6452,-2.6458,-2.6493,-2.644,-2.6438,-2.6435,-2.6433,-2.6461,-2.6463,-2.6472,-2.6525,-2.6526,-2.6476,-2.6477,-2.6479,-2.6479,0,0,0,0,0,0,0,-2.6398,-2.6403,-2.6461,-2.6438,-2.6437,-2.6428,-2.643,-2.6464,-2.646,-2.6438,-2.6435,-2.6439,-2.646,-2.647,-2.6473,-2.6527,-2.6475,-2.6478,-2.648,-2.6481,-2.6628,-2.663,0,0,0,0,0,0,-2.6397,-2.6402,-2.646,-2.6461,-2.6412,-2.6431,-2.6434,-2.6449,-2.6459,-2.6459,-2.644,-2.6437,-2.6466,-2.6469,-2.6474,-2.6542,-2.6479,-2.6481,-2.6483,-2.6626,-2.6629,-2.6631,0,0,0,0,0,0,-2.6396,-2.6403,-2.6459,-2.6431,-2.6437,-2.6434,-2.6452,-2.6451,-2.6461,-2.6461,-2.646,-2.6451,-2.6464,-2.647,-2.6512,-2.6542,-2.6483,-2.6485,-2.6624,-2.6627,-2.663,-2.6678,0,0,0,0,0,0,-2.6394,-2.6403,-2.6424,-2.6432,-2.6439,-2.6496,-2.6454,-2.6452,-2.6466,-2.6461,-2.6471,-2.6471,-2.6463,-2.6508,-2.6515,-2.6545,-2.6487,-2.6621,-2.6625,-2.6629,-2.6674,-2.6683,-2.669,0,0,0,0,0,-2.6391,-2.6436,-2.6425,-2.6432,-2.6466,-2.6498,-2.6502,-2.6492,-2.6468,-2.649,-2.6491,-2.6471,-2.6538,-2.6512,-2.652,-2.6551,-2.6619,-2.6624,-2.6629,-2.667,-2.6681,-2.669,0,0,0,0,0,0,-2.6432,-2.6437,-2.6425,-2.6474,-2.6486,-2.6491,-2.6518,-2.6503,-2.6522,-2.6517,-2.6504,-2.6507,-2.6552,-2.6556,-2.6527,-2.6608,-2.6574,-2.6581,-2.6603,-2.6614,-2.6622,-2.6619,-2.649,0,0,0,0,0,-2.6447,-2.6473,-2.6476,-2.6519,-2.6525,-2.6521,-2.6535,-2.6526,-2.6538,-2.6543,-2.6546,-2.6559,-2.6583,-2.6598,-2.662,-2.6675,-2.6676,-2.67,-2.6708,-2.6715,-2.6721,-2.675,-2.6761,-2.6647,-2.6647,-2.6647,0,0,-2.6478,-2.6484,-2.6501,-2.6527,-2.6535,-2.6563,-2.6526,-2.6556,-2.6576,-2.6547,-2.6587,-2.6591,-2.6604,-2.6652,-2.6674,-2.6657,-2.6753,-2.6721,-2.6727,-2.6729,-2.6756,-2.6767,-2.6777,-2.6651,-2.665,-2.6649,0,0,-2.6548,-2.6555,-2.6592,-2.6601,-2.6614,-2.6611,-2.662,-2.6628,-2.6629,-2.6669,-2.6649,-2.6673,-2.6714,-2.6724,-2.6735,-2.6811,-2.6793,-2.6818,-2.6861,-2.6889,-2.6898,-2.6906,-2.6933,-2.6943,-2.6824,-2.6824,-2.6824,0,-2.6585,-2.6624,-2.6613,-2.6644,-2.6657,-2.6633,-2.667,-2.668,-2.67,-2.6709,-2.669,-2.6742,-2.6749,-2.68,-2.6818,-2.6828,-2.6838,-2.6816,-2.6898,-2.6906,-2.6913,-2.6938,-2.6949,-2.6827,-2.6827,-2.6826,-2.6826,0,-2.6669,-2.6697,-2.6725,-2.6745,-2.6761,-2.6795,-2.6789,-2.6807,-2.6797,-2.6797,-2.6838,-2.6846,-2.6869,-2.6881,-2.6872,-2.6931,-2.692,-2.69,-2.6866,-2.6927,-2.6951,-2.696,-2.6831,-2.683,-2.6829,-2.6829,0,0,-2.6764,-2.6778,-2.6788,-2.6797,-2.681,-2.6832,-2.6866,-2.6889,-2.6904,-2.6919,-2.6947,-2.6983,-2.6965,-2.6977,-2.6969,-2.6995,-2.7054,-2.6971,-2.6971,-2.6986,-2.712,-2.7135,-2.7146,-2.7043,-2.7045,-2.7046,-2.7119,0,-2.6834,-2.6892,-2.6883,-2.694,-2.6966,-2.6944,-2.6973,-2.6985,-2.6985,-2.7008,-2.7009,-2.7035,-2.7008,-2.7016,-2.704,-2.7042,-2.7081,-2.7036,-2.7069,-2.7071,-2.7066,-2.7159,-2.7174,-2.7242,-2.7128,-2.713,-2.7131,0,-2.6923,-2.6941,-2.7,-2.7009,-2.702,-2.7047,-2.7067,-2.7089,-2.7102,-2.7101,-2.7115,-2.7103,-2.7137,-2.7103,-2.7151,-2.7121,-2.7134,-2.7138,-2.714,-2.7142,-2.7104,-2.7163,-2.7264,-2.7274,-2.7145,-2.7144,-2.7143,0,-2.6987,-2.7026,-2.7066,-2.7074,-2.7087,-2.7106,-2.7112,-2.7123,-2.7138,-2.7156,-2.7165,-2.7188,-2.72,-2.7218,-2.7212,-2.7188,-2.7261,-2.7227,-2.7261,-2.7261,-2.7277,-2.7276,-2.7381,-2.7286,-2.7286,-2.7286,-2.7286,0,-2.7065,-2.7102,-2.7095,-2.712,-2.7161,-2.7151,-2.7192,-2.7195,-2.7205,-2.7231,-2.7213,-2.7238,-2.7229,-2.7253,-2.7249,-2.7289,-2.7295,-2.7295,-2.7293,-2.7296,-2.7296,-2.7304,-2.7299,-2.7289,-2.7288,-2.7288,-2.7287,0,-2.7143,-2.714,-2.7182,-2.719,-2.7193,-2.7223,-2.7231,-2.7254,-2.7254,-2.7286,-2.7293,-2.7293,-2.7321,-2.7317,-2.7348,-2.7345,-2.7395,-2.7388,-2.739,-2.7389,-2.7423,-2.742,-2.7536,-2.7551,-2.7448,-2.7449,-2.745,0,-2.7193,-2.7221,-2.7232,-2.7248,-2.7256,-2.7281,-2.7296,-2.7288,-2.7304,-2.7321,-2.7343,-2.7369,-2.7389,-2.7435,-2.7437,-2.7461,-2.7454,-2.7493,-2.7457,-2.746,-2.7454,-2.7453,-2.7456,-2.75,-2.7501,-2.7502,-2.7503,0,-2.7283,-2.728,-2.7302,-2.7323,-2.7342,-2.7358,-2.7373,-2.7387,-2.738,-2.74,-2.7428,-2.7443,-2.7475,-2.7501,-2.7524,-2.753,-2.7516,-2.7514,-2.7524,-2.7527,-2.7527,-2.7527,-2.7409,-2.7512,-2.7511,-2.751,-2.751,-2.7509,-2.7348,-2.7372,-2.7384,-2.7409,-2.7419,-2.7434,-2.7457,-2.7459,-2.7482,-2.7507,-2.7501,-2.7533,-2.7546,-2.7574,-2.7584,-2.7609,-2.7594,-2.7608,-2.7611,-2.7614,-2.7619,-2.7524,-2.7613,-2.7613,-2.7612,-2.7612,-2.7612,0,-2.7437,-2.7443,-2.7467,-2.7488,-2.7508,-2.7493,-2.7509,-2.7527,-2.7555,-2.7568,-2.7588,-2.7621,-2.7647,-2.7652,-2.7676,-2.7695,-2.7689,-2.7702,-2.77,-2.7702,-2.763,-2.7619,-2.7706,-2.7706,-2.7706,-2.7706,-2.7706,-2.7706,-2.7485,-2.7525,-2.7524,-2.7569,-2.7575,-2.7606,-2.7616,-2.763,-2.764,-2.7677,-2.7698,-2.7701,-2.7712,-2.7737,-2.776,-2.7761,-2.7771,-2.7786,-2.7784,-2.7717,-2.7707,-2.7698,-2.7688,-2.7788,-2.7788,-2.7855,-2.7855,-2.7856]},{"header":{"parameterUnit":"m.s-1","parameterCategory":1,"la1":30.2991,"la2":30.254,"lo1":-89.0895,"lo2":-89.0444,"dy":0.0017,"dx":0.0017,"nx":28,"ny":28,"refTime":"2024-08-15T21:00:00:Z","depth":0,"parameterNumber":3,"parameterNumberName":"V-component_of_WINDS"},"data":[0,0,0,0,0,0,0,0,0,0,0,0,0,0,0,0,0,0,0,0,0,0,0,0,0,0,0,0,0,0,0,0,0,0,0,0,0,0,0,0,0,0,0,0,0,0,0,0,0,0,0,0,0,0,0,0,0,0,4.5939,4.5939,0,4.5933,4.5933,4.5933,4.59,4.5899,4.5899,4.5898,4.5892,4.5893,4.5894,0,0,0,0,0,0,0,0,0,0,0,0,0,4.5923,4.5923,4.5939,4.5939,4.5939,4.5933,4.5933,4.5933,4.59,4.5899,4.5898,4.5898,4.5892,4.5893,4.5894,0,0,0,0,0,0,0,0,0,0,0,0,0,4.5925,4.5923,4.5939,4.5922,4.592,4.5933,4.5933,4.5933,4.5901,4.5899,4.5898,4.5897,4.5892,4.5893,4.5894,4.5923,0,0,4.5896,4.5897,0,0,0,0,0,0,0,0,4.5924,4.5925,4.5924,4.5923,4.5921,4.5916,4.5925,4.5929,4.5901,4.5908,4.5898,4.5897,4.5901,4.5901,4.5903,4.5922,4.5922,4.5897,4.5897,4.5897,4.5898,0,0,0,0,0,0,0,4.5924,4.5925,4.5936,4.5924,4.5922,4.5915,4.5914,4.5926,4.5911,4.5907,4.5905,4.5905,4.59,4.5902,4.5902,4.5922,4.5897,4.5897,4.5898,4.5898,4.5965,4.5966,0,0,0,0,0,0,4.5927,4.5925,4.5937,4.5936,4.592,4.5916,4.5915,4.5919,4.5911,4.5909,4.5906,4.5903,4.5901,4.5901,4.5902,4.5935,4.5897,4.5898,4.5899,4.5964,4.5965,4.5967,0,0,0,0,0,0,4.5926,4.5928,4.5937,4.593,4.5931,4.5917,4.5922,4.5919,4.5921,4.591,4.5907,4.591,4.59,4.5901,4.5918,4.5934,4.5899,4.5899,4.5962,4.5964,4.5966,4.6001,0,0,0,0,0,0,4.5926,4.5928,4.5938,4.5931,4.5931,4.5952,4.5923,4.592,4.5923,4.5919,4.5913,4.5911,4.5899,4.5917,4.5919,4.5935,4.59,4.5961,4.5963,4.5965,4.5999,4.6004,4.6009,0,0,0,0,0,4.5926,4.5949,4.5939,4.5941,4.5944,4.5953,4.5954,4.5939,4.5924,4.5935,4.5928,4.5911,4.5933,4.5919,4.5921,4.5937,4.596,4.5962,4.5965,4.5996,4.6003,4.6009,0,0,0,0,0,0,4.5959,4.5947,4.5937,4.5958,4.5957,4.5948,4.5961,4.5947,4.595,4.5947,4.593,4.5929,4.5948,4.5945,4.5929,4.5965,4.5943,4.5947,4.5966,4.5973,4.5978,4.5978,4.5901,0,0,0,0,0,4.5969,4.5977,4.5967,4.5987,4.5987,4.5974,4.5977,4.5967,4.5965,4.5964,4.5958,4.5957,4.5964,4.5968,4.5973,4.5998,4.5996,4.6011,4.6016,4.6021,4.6023,4.6036,4.6042,4.5976,4.5976,4.5976,0,0,4.5989,4.5984,4.599,4.5993,4.5991,4.6,4.5974,4.5984,4.5991,4.5966,4.5981,4.5977,4.5975,4.5996,4.6005,4.5993,4.6041,4.6024,4.6028,4.6028,4.604,4.6046,4.6051,4.5978,4.5977,4.5977,0,0,4.6031,4.6028,4.6044,4.6042,4.604,4.6031,4.6035,4.6028,4.6024,4.6039,4.6021,4.6029,4.604,4.6039,4.604,4.6083,4.6068,4.6085,4.6112,4.6124,4.613,4.6134,4.6148,4.6154,4.6088,4.6088,4.6088,0,4.6056,4.6069,4.6054,4.6066,4.6068,4.6046,4.6062,4.6061,4.6061,4.6062,4.605,4.6064,4.6061,4.6081,4.6092,4.6094,4.6097,4.6085,4.613,4.6134,4.6138,4.6152,4.6158,4.609,4.609,4.609,4.609,0,4.6101,4.611,4.6123,4.6123,4.6126,4.614,4.6128,4.6133,4.6123,4.6115,4.6131,4.6127,4.6131,4.6135,4.6125,4.6154,4.6147,4.6133,4.6111,4.6147,4.6159,4.6165,4.6093,4.6092,4.6092,4.6091,0,0,4.6162,4.6153,4.6158,4.6158,4.6154,4.616,4.6174,4.6178,4.6183,4.6183,4.6194,4.6204,4.6191,4.6192,4.6182,4.6193,4.6226,4.6177,4.6177,4.6186,4.6258,4.6268,4.6274,4.6217,4.6218,4.6219,4.6258,0,4.6201,4.6223,4.621,4.6234,4.6242,4.6222,4.6233,4.6232,4.6226,4.6233,4.6226,4.6234,4.6216,4.6216,4.6227,4.622,4.624,4.6217,4.6226,4.6227,4.6226,4.6281,4.6292,4.6329,4.6263,4.6263,4.6264,0,4.6249,4.6252,4.6276,4.627,4.6273,4.6284,4.6286,4.6293,4.6291,4.6286,4.6288,4.6275,4.6288,4.6267,4.6285,4.6269,4.6272,4.627,4.6271,4.627,4.6247,4.6281,4.634,4.6345,4.6272,4.6271,4.627,0,4.6291,4.63,4.6316,4.6316,4.631,4.6318,4.6316,4.6313,4.6316,4.6319,4.6321,4.6325,4.6327,4.6331,4.6319,4.6305,4.6338,4.6316,4.6334,4.6335,4.6341,4.6341,4.6401,4.6345,4.6345,4.6345,4.6345,0,4.6335,4.6351,4.6334,4.6344,4.6361,4.6347,4.6364,4.636,4.6358,4.6366,4.635,4.6358,4.6343,4.635,4.6342,4.6357,4.6358,4.6355,4.6352,4.6355,4.6356,4.6356,4.6353,4.6346,4.6346,4.6346,4.6346,0,4.6384,4.6373,4.6389,4.6382,4.6381,4.6394,4.6388,4.6396,4.639,4.6401,4.6403,4.6392,4.64,4.6389,4.6396,4.639,4.6411,4.6405,4.6411,4.6409,4.6427,4.6425,4.6489,4.6496,4.6437,4.6438,4.6438,0,4.6412,4.6424,4.6418,4.6422,4.6421,4.6429,4.6432,4.6418,4.6422,4.6422,4.6431,4.6437,4.6441,4.6454,4.6447,4.6452,4.6445,4.6467,4.6446,4.6449,4.6445,4.6444,4.6444,4.6471,4.6472,4.6473,4.6473,0,4.6464,4.6458,4.6463,4.6467,4.6471,4.6473,4.6474,4.6479,4.6465,4.647,4.6478,4.6481,4.6488,4.6494,4.6497,4.6495,4.6482,4.648,4.6484,4.6487,4.649,4.6488,4.6422,4.6478,4.6478,4.6477,4.6477,4.6477,4.6502,4.6511,4.6509,4.6515,4.6515,4.6516,4.6524,4.6518,4.6524,4.6528,4.652,4.653,4.6528,4.6531,4.6531,4.6538,4.6528,4.6535,4.6536,4.6537,4.654,4.649,4.6539,4.6538,4.6538,4.6538,4.6538,0,4.6552,4.655,4.6556,4.6557,4.6562,4.655,4.6551,4.6556,4.6564,4.6564,4.6568,4.6577,4.6583,4.6577,4.6582,4.6589,4.6583,4.659,4.6589,4.6589,4.6549,4.6544,4.6595,4.6595,4.6595,4.6595,4.6595,4.6595,4.6579,4.6593,4.6588,4.6602,4.66,4.6608,4.661,4.6611,4.6611,4.6621,4.6626,4.6622,4.6619,4.6624,4.6629,4.6627,4.6629,4.6639,4.6635,4.6597,4.6592,4.6586,4.6582,4.664,4.664,4.6674,4.6674,4.6675]}]]